DIAMANT B-P4 DEB, 7654

Orbit data source: Space-Track

DIAMANT B-P4 DEB, 7654 is space debris in LEO originally from a launch on Thu, 06 Feb 1975 UTC launched from the French Guiana (FRGUI). Debris objects in space refer to the collection of defunct objects orbiting the Earth. Examples of debris include non-operational satellites, rocket bodies, and fragments generated from explosions, collisions, or faulty payload assembly.

Loading next visibility...
Identifier
7654, 1975-010C
Orbit
LEO
Country
Flag of FRFR
Related business
Manufacturer
Unknown
Mission
Spacecraft
Bus & Motor
Unknown
Mass
Unknown
Launch date (UTC)
1975-02-06 (51 years ago)
Launch vehicle
Unknown
Launch site
French Guiana (FRGUI)
Object type
Payload
Rocket body
Debris
Shape & HBR
Unknown
Radar Cross Section
Small (<0.1 m²)

Expand to show TLE details & history
Last TLE update: 18 hours ago

TLE from 18 hours ago
0 DIAMANT B-P4 DEB
1 07654U 75010C   25260.24162623  .00000068  00000-0  13779-3 0  9990
2 07654  49.8448 205.7622 0172311 255.9952 102.1735 13.95656800571833
Epoch: 2025-09-17T05:47Z
TLE epoch observation values (Epoch: 2025-09-17T05:47:56.506Z)
Latitude
-0.00006°
Longitude
122.35631°
Altitude
937.912 km
Speed
7.37 km/s
True Right ascension
13h 43m 02s
True Declination
0° 00' 00"
Sunlit
Object was in daylight at epoch
Visualization orbit readout
Latitude
Unknown
Longitude
Unknown
Altitude
Unknown
Speed
Unknown
Apparent Right ascension
Unknown
Apparent Declination
Unknown
Sunlit
N/A
Visualization observer readout
Local Sidereal Time
16:50:15
Azimuth
Unknown
Elevation
Unknown
Doppler factor
Unknown
Orbital elements
Apogee altitude
1,035.203 km
Perigee altitude
784.051 km
Semi-major axis
7,287.764 km
Eccentricity
0.01723
Inclination
49.8448°
RAAN
205.7622°
Arg. of periapsis
255.9952°
True anomaly
104.09455°
Mean anomaly
102.1735°
Eccentric anomaly
103.13494°
Mean motion
3.4886 °/min
Orbital period
103.19 mins
BSTAR
0.00013779
Loading maneuver chart data...
Computing Atmospheric mass density...
Loading historical data...
Loading historical data...
Loading historical data...
Loading historical data...
Loading historical data...
Loading historical data...
Loading historical data...
Other satellites on launch #10 in the year 1975 (1975-02-06 UTC)

Documentation

Showing up to 5 results
|